Year,Month,Day,Hour,Minute,Value (Times are PST for temperature in C)
2015,12,08,00,01,9.40
2015,12,08,00,02,9.40
2015,12,08,00,03,9.40
2015,12,08,00,04,9.40
2015,12,08,00,06,9.40
2015,12,08,00,07,9.40
2015,12,08,00,08,9.40
2015,12,08,00,09,9.40
2015,12,08,00,11,9.50
2015,12,08,00,12,9.50
2015,12,08,00,13,9.50
2015,12,08,00,14,9.50
2015,12,08,00,16,9.50
2015,12,08,00,17,9.50
2015,12,08,00,18,9.50
2015,12,08,00,19,9.50
2015,12,08,00,21,9.50
2015,12,08,00,22,9.50
2015,12,08,00,23,9.50
2015,12,08,00,24,9.50
2015,12,08,00,26,9.50
2015,12,08,00,27,9.50
2015,12,08,00,28,9.50
2015,12,08,00,29,9.50
2015,12,08,00,31,9.50
2015,12,08,00,32,9.50
2015,12,08,00,33,9.50
2015,12,08,00,34,9.50
2015,12,08,00,36,9.60
2015,12,08,00,37,9.60
2015,12,08,00,38,9.60
2015,12,08,00,39,9.60
2015,12,08,00,40,9.60
2015,12,08,00,41,9.60
2015,12,08,00,42,9.60
2015,12,08,00,43,9.60
2015,12,08,00,44,9.60
2015,12,08,00,45,9.60
2015,12,08,00,46,9.60
2015,12,08,00,47,9.60
2015,12,08,00,48,9.60
2015,12,08,00,49,9.60
2015,12,08,00,50,9.60
2015,12,08,00,51,9.60
2015,12,08,00,52,9.60
2015,12,08,00,53,9.60
2015,12,08,00,54,9.60
2015,12,08,00,55,9.60
2015,12,08,00,56,9.60
2015,12,08,00,57,9.60
2015,12,08,00,58,9.60
2015,12,08,00,59,9.60
2015,12,08,01,00,9.60
2015,12,08,01,01,9.60
2015,12,08,01,02,9.60
2015,12,08,01,03,9.60
2015,12,08,01,04,9.60
2015,12,08,01,05,9.60
2015,12,08,01,06,9.60
2015,12,08,01,07,9.60
2015,12,08,01,08,9.60
2015,12,08,01,09,9.60
2015,12,08,01,11,9.60
2015,12,08,01,12,9.60
2015,12,08,01,13,9.60
2015,12,08,01,14,9.60
2015,12,08,01,16,9.60
2015,12,08,01,17,9.60
2015,12,08,01,18,9.60
2015,12,08,01,19,9.60
2015,12,08,01,21,9.60
2015,12,08,01,22,9.60
2015,12,08,01,23,9.60
2015,12,08,01,24,9.60
2015,12,08,01,26,9.60
2015,12,08,01,27,9.60
2015,12,08,01,28,9.60
2015,12,08,01,29,9.60
2015,12,08,01,31,9.50
2015,12,08,01,32,9.50
2015,12,08,01,33,9.50
2015,12,08,01,34,9.50
2015,12,08,01,36,9.50
2015,12,08,01,37,9.50
2015,12,08,01,38,9.50
2015,12,08,01,39,9.50
2015,12,08,01,41,9.50
2015,12,08,01,42,9.50
2015,12,08,01,43,9.50
2015,12,08,01,44,9.50
2015,12,08,01,46,9.50
2015,12,08,01,47,9.50
2015,12,08,01,48,9.50
2015,12,08,01,49,9.50
2015,12,08,01,51,9.50
2015,12,08,01,52,9.50
2015,12,08,01,53,9.40
2015,12,08,01,54,9.40
2015,12,08,01,56,9.40
2015,12,08,01,57,9.40
2015,12,08,01,58,9.40
2015,12,08,01,59,9.40
2015,12,08,02,01,9.40
2015,12,08,02,02,9.40
2015,12,08,02,03,9.40
2015,12,08,02,04,9.40
2015,12,08,02,06,9.40
2015,12,08,02,07,9.40
2015,12,08,02,08,9.40
2015,12,08,02,09,9.40
2015,12,08,02,11,9.30
2015,12,08,02,12,9.30
2015,12,08,02,13,9.30
2015,12,08,02,14,9.30
2015,12,08,02,16,9.30
2015,12,08,02,17,9.20
2015,12,08,02,18,9.20
2015,12,08,02,19,9.20
2015,12,08,02,21,9.20
2015,12,08,02,22,9.20
2015,12,08,02,23,9.20
2015,12,08,02,24,9.20
2015,12,08,02,26,9.30
2015,12,08,02,27,9.30
2015,12,08,02,28,9.30
2015,12,08,02,29,9.30
2015,12,08,02,31,9.30
2015,12,08,02,32,9.30
2015,12,08,02,33,9.30
2015,12,08,02,34,9.30
2015,12,08,02,36,9.30
2015,12,08,02,37,9.30
2015,12,08,02,38,9.30
2015,12,08,02,39,9.30
2015,12,08,02,41,9.30
2015,12,08,02,42,9.30
2015,12,08,02,43,9.30
2015,12,08,02,44,9.30
2015,12,08,02,46,9.20
2015,12,08,02,47,9.20
2015,12,08,02,48,9.20
2015,12,08,02,49,9.20
2015,12,08,02,51,9.20
2015,12,08,02,52,9.20
2015,12,08,02,53,9.20
2015,12,08,02,54,9.20
2015,12,08,02,56,9.20
2015,12,08,02,57,9.20
2015,12,08,02,58,9.20
2015,12,08,02,59,9.20
2015,12,08,03,01,9.20
2015,12,08,03,02,9.20
2015,12,08,03,03,9.20
2015,12,08,03,04,9.20
2015,12,08,03,06,9.20
2015,12,08,03,07,9.20
2015,12,08,03,08,9.20
2015,12,08,03,09,9.20
2015,12,08,03,11,9.20
2015,12,08,03,12,9.20
2015,12,08,03,13,9.20
2015,12,08,03,14,9.20
2015,12,08,03,16,9.20
2015,12,08,03,17,9.20
2015,12,08,03,18,9.20
2015,12,08,03,19,9.20
2015,12,08,03,21,9.20
2015,12,08,03,22,9.20
2015,12,08,03,23,9.20
2015,12,08,03,24,9.20
2015,12,08,03,26,9.20
2015,12,08,03,27,9.20
2015,12,08,03,28,9.20
2015,12,08,03,29,9.20
2015,12,08,03,31,9.20
2015,12,08,03,32,9.20
2015,12,08,03,33,9.20
2015,12,08,03,34,9.10
2015,12,08,03,35,9.10
2015,12,08,03,36,9.10
2015,12,08,03,37,9.10
2015,12,08,03,38,9.10
2015,12,08,03,39,9.10
2015,12,08,03,40,9.10
2015,12,08,03,41,9.10
2015,12,08,03,42,9.10
2015,12,08,03,43,9.10
2015,12,08,03,44,9.10
2015,12,08,03,45,9.10
2015,12,08,03,46,9.10
2015,12,08,03,47,9.10
2015,12,08,03,48,9.20
2015,12,08,03,49,9.20
2015,12,08,03,50,9.20
2015,12,08,03,51,9.20
2015,12,08,03,52,9.20
2015,12,08,03,53,9.20
2015,12,08,03,54,9.20
2015,12,08,03,55,9.20
2015,12,08,03,56,9.20
2015,12,08,03,57,9.20
2015,12,08,03,58,9.20
2015,12,08,03,59,9.20
2015,12,08,04,00,9.20
2015,12,08,04,01,9.30
2015,12,08,04,03,9.40
2015,12,08,04,04,9.50
2015,12,08,04,06,9.50
2015,12,08,04,07,9.60
2015,12,08,04,08,9.60
2015,12,08,04,09,9.70
2015,12,08,04,11,9.70
2015,12,08,04,12,9.70
2015,12,08,04,13,9.80
2015,12,08,04,14,9.80
2015,12,08,04,16,9.90
2015,12,08,04,17,9.90
2015,12,08,04,18,10.10
2015,12,08,04,19,10.10
2015,12,08,04,21,10.10
2015,12,08,04,22,10.10
2015,12,08,04,23,10.10
2015,12,08,04,24,10.10
2015,12,08,04,26,10.10
2015,12,08,04,27,10.10
2015,12,08,04,28,10.10
2015,12,08,04,29,10.10
2015,12,08,04,31,10.10
2015,12,08,04,32,10.10
2015,12,08,04,33,10.10
2015,12,08,04,34,10.20
2015,12,08,04,36,10.20
2015,12,08,04,37,10.20
2015,12,08,04,38,10.30
2015,12,08,04,39,10.30
2015,12,08,04,41,10.40
2015,12,08,06,29,10.90
2015,12,08,06,30,10.90
2015,12,08,06,31,10.90
2015,12,08,06,32,10.90
2015,12,08,06,33,10.90
2015,12,08,06,34,10.90
2015,12,08,06,35,10.90
2015,12,08,06,36,10.90
2015,12,08,06,37,10.90
2015,12,08,06,38,10.90
2015,12,08,06,39,10.90
2015,12,08,06,40,10.90
2015,12,08,06,41,10.90
2015,12,08,06,42,10.90
2015,12,08,06,43,10.90
2015,12,08,06,44,10.90
2015,12,08,06,46,10.90
2015,12,08,06,47,10.90
2015,12,08,06,48,10.90
2015,12,08,06,49,10.90
2015,12,08,06,51,10.90
2015,12,08,06,52,10.90
2015,12,08,06,53,11.10
2015,12,08,06,54,11.10
2015,12,08,06,56,11.10
2015,12,08,06,57,11.10
2015,12,08,06,58,11.10
2015,12,08,06,59,11.10
2015,12,08,07,01,11.10
2015,12,08,07,02,11.10
2015,12,08,07,03,11.10
2015,12,08,07,04,11.10
2015,12,08,07,06,11.10
2015,12,08,07,07,11.10
2015,12,08,07,08,11.10
2015,12,08,07,09,11.10
2015,12,08,07,11,11.10
2015,12,08,07,12,11.10
2015,12,08,07,13,11.10
2015,12,08,07,14,11.10
2015,12,08,07,16,11.10
2015,12,08,07,17,11.10
2015,12,08,07,18,11.10
2015,12,08,07,19,11.10
2015,12,08,07,29,11.10
2015,12,08,07,30,11.20
2015,12,08,07,31,11.20
2015,12,08,07,32,11.20
2015,12,08,07,33,11.20
2015,12,08,07,34,11.30
2015,12,08,07,35,11.30
2015,12,08,07,36,11.30
2015,12,08,07,37,11.30
2015,12,08,07,38,11.30
2015,12,08,07,39,11.40
2015,12,08,07,40,11.40
2015,12,08,07,41,11.40
2015,12,08,07,42,11.40
2015,12,08,07,43,11.40
2015,12,08,07,44,11.40
2015,12,08,07,45,11.40
2015,12,08,07,46,11.40
2015,12,08,07,48,11.40
2015,12,08,07,49,11.40
2015,12,08,07,51,11.40
2015,12,08,07,52,11.40
2015,12,08,07,53,11.40
2015,12,08,07,54,11.40
2015,12,08,07,56,11.60
2015,12,08,07,57,11.60
2015,12,08,07,58,11.60
2015,12,08,07,59,11.60
2015,12,08,08,01,11.60
2015,12,08,08,02,11.60
2015,12,08,08,03,11.70
2015,12,08,08,04,11.70
2015,12,08,08,06,11.80
2015,12,08,08,07,11.80
2015,12,08,08,08,11.80
2015,12,08,08,09,11.80
2015,12,08,08,11,11.80
2015,12,08,08,12,11.90
2015,12,08,08,13,11.90
2015,12,08,08,14,11.90
2015,12,08,08,16,11.90
2015,12,08,08,17,11.90
2015,12,08,08,18,11.90
2015,12,08,08,19,11.90
2015,12,08,08,21,12.00
2015,12,08,08,22,12.00
2015,12,08,08,23,12.10
2015,12,08,08,24,12.10
2015,12,08,08,26,12.20
2015,12,08,08,27,12.20
2015,12,08,08,28,12.10
2015,12,08,08,29,12.10
2015,12,08,08,31,12.10
2015,12,08,08,32,12.10
2015,12,08,08,33,12.10
2015,12,08,08,34,12.10
2015,12,08,08,36,12.00
2015,12,08,08,37,12.00
2015,12,08,08,38,12.00
2015,12,08,08,39,12.00
2015,12,08,08,41,11.90
2015,12,08,08,42,11.90
2015,12,08,08,43,11.90
2015,12,08,08,44,11.90
2015,12,08,08,46,11.90
2015,12,08,08,47,11.80
2015,12,08,08,48,11.80
2015,12,08,08,49,11.80
2015,12,08,08,51,11.80
2015,12,08,08,52,11.80
2015,12,08,08,53,11.80
2015,12,08,08,54,11.80
2015,12,08,08,56,11.80
2015,12,08,08,57,11.80
2015,12,08,08,58,11.80
2015,12,08,08,59,11.80
2015,12,08,09,01,11.80
2015,12,08,09,02,11.80
2015,12,08,09,03,11.80
2015,12,08,09,04,11.80
2015,12,08,09,06,11.80
2015,12,08,09,07,11.90
2015,12,08,09,08,11.90
2015,12,08,09,09,11.90
2015,12,08,09,11,11.90
2015,12,08,09,12,11.90
2015,12,08,09,13,11.90
2015,12,08,09,14,11.90
2015,12,08,09,16,12.20
2015,12,08,09,17,12.30
2015,12,08,09,18,12.30
2015,12,08,09,19,12.30
2015,12,08,09,21,12.50
2015,12,08,09,22,12.50
2015,12,08,09,23,12.60
2015,12,08,09,24,12.70
2015,12,08,09,26,12.80
2015,12,08,09,27,12.80
2015,12,08,09,28,12.80
2015,12,08,09,29,12.80
2015,12,08,09,31,12.80
2015,12,08,09,32,12.80
2015,12,08,09,33,12.80
2015,12,08,09,34,12.80
2015,12,08,09,36,12.80
2015,12,08,09,37,12.80
2015,12,08,09,38,12.80
2015,12,08,09,39,12.70
2015,12,08,09,41,12.70
2015,12,08,09,42,12.70
2015,12,08,09,43,12.70
2015,12,08,09,44,12.80
2015,12,08,09,46,12.80
2015,12,08,09,47,12.80
2015,12,08,09,48,12.90
2015,12,08,09,49,12.90
2015,12,08,09,51,13.00
2015,12,08,09,52,13.10
2015,12,08,09,53,13.20
2015,12,08,09,54,13.30
2015,12,08,09,56,13.30
2015,12,08,09,57,13.30
2015,12,08,09,58,13.30
2015,12,08,09,59,13.30
2015,12,08,10,01,13.30
2015,12,08,10,02,13.30
2015,12,08,10,03,13.40
2015,12,08,10,04,13.40
2015,12,08,10,06,13.40
2015,12,08,10,07,13.40
2015,12,08,10,08,13.40
2015,12,08,10,09,13.40
2015,12,08,10,10,13.40
2015,12,08,10,11,13.40
2015,12,08,10,12,13.40
2015,12,08,10,13,13.50
2015,12,08,10,14,13.50
2015,12,08,10,15,13.50
2015,12,08,10,16,13.60
2015,12,08,10,17,13.60
2015,12,08,10,18,13.60
2015,12,08,10,19,13.60
2015,12,08,10,20,13.60
2015,12,08,10,21,13.60
2015,12,08,10,22,13.60
2015,12,08,10,23,13.60
2015,12,08,10,24,13.60
2015,12,08,10,25,13.60
2015,12,08,10,26,13.50
2015,12,08,10,27,13.50
2015,12,08,10,28,13.50
2015,12,08,10,29,13.50
2015,12,08,10,30,13.50
2015,12,08,10,31,13.50
2015,12,08,10,32,13.50
2015,12,08,10,33,13.50
2015,12,08,10,34,13.50
2015,12,08,10,35,13.50
2015,12,08,10,37,13.50
2015,12,08,10,39,13.50
2015,12,08,10,41,13.50
2015,12,08,10,42,13.50
2015,12,08,10,43,13.50
2015,12,08,10,44,13.60
2015,12,08,10,46,13.60
2015,12,08,10,47,13.60
2015,12,08,10,48,13.60
2015,12,08,10,49,13.60
2015,12,08,10,51,13.60
2015,12,08,10,52,13.60
2015,12,08,10,53,13.60
2015,12,08,10,54,13.60
2015,12,08,10,56,13.60
2015,12,08,10,57,13.70
2015,12,08,10,58,13.70
2015,12,08,10,59,13.70
2015,12,08,11,01,13.70
2015,12,08,11,02,13.70
2015,12,08,11,03,13.70
2015,12,08,11,04,13.70
2015,12,08,11,06,13.70
2015,12,08,11,07,13.70
2015,12,08,11,08,13.60
2015,12,08,11,09,13.60
2015,12,08,11,11,13.40
2015,12,08,11,12,13.30
2015,12,08,11,13,13.30
2015,12,08,11,14,13.20
2015,12,08,11,16,13.00
2015,12,08,11,17,12.90
2015,12,08,11,18,12.80
2015,12,08,11,19,12.80
2015,12,08,11,21,12.60
2015,12,08,11,22,12.50
2015,12,08,11,23,12.50
2015,12,08,11,24,12.50
2015,12,08,11,26,12.40
2015,12,08,11,27,12.30
2015,12,08,11,28,12.30
2015,12,08,11,29,12.30
2015,12,08,11,31,12.30
2015,12,08,11,32,12.30
2015,12,08,11,33,12.30
2015,12,08,11,34,12.30
2015,12,08,11,36,12.20
2015,12,08,11,37,12.20
2015,12,08,11,38,12.20
2015,12,08,11,39,12.10
2015,12,08,11,41,12.10
2015,12,08,11,42,12.00
2015,12,08,11,43,12.00
2015,12,08,11,44,12.00
2015,12,08,11,46,11.90
2015,12,08,11,47,11.90
2015,12,08,11,48,11.90
2015,12,08,11,49,11.90
2015,12,08,11,51,11.90
2015,12,08,11,52,11.90
2015,12,08,11,53,11.90
2015,12,08,11,54,11.90
2015,12,08,11,56,11.90
2015,12,08,11,57,11.80
2015,12,08,11,58,11.80
2015,12,08,11,59,11.80
2015,12,08,12,01,11.80
2015,12,08,12,02,11.80
2015,12,08,12,03,11.80
2015,12,08,12,04,11.80
2015,12,08,12,06,11.80
2015,12,08,12,07,11.80
2015,12,08,12,08,11.80
2015,12,08,12,09,11.90
2015,12,08,12,11,11.90
2015,12,08,12,12,11.90
2015,12,08,12,13,11.90
2015,12,08,12,14,11.90
2015,12,08,12,16,11.90
2015,12,08,12,17,11.90
2015,12,08,12,18,11.90
2015,12,08,12,19,11.90
2015,12,08,12,21,12.00
2015,12,08,12,22,12.00
2015,12,08,12,23,12.00
2015,12,08,12,24,12.00
2015,12,08,12,26,12.10
2015,12,08,12,27,12.10
2015,12,08,12,28,12.10
2015,12,08,12,29,12.10
2015,12,08,12,31,12.20
2015,12,08,12,32,12.20
2015,12,08,12,33,12.20
2015,12,08,12,34,12.20
2015,12,08,12,36,12.20
2015,12,08,12,37,12.20
2015,12,08,12,38,12.20
2015,12,08,12,39,12.20
2015,12,08,12,41,12.20
2015,12,08,12,42,12.20
2015,12,08,12,43,12.30
2015,12,08,12,44,12.30
2015,12,08,12,45,12.30
2015,12,08,12,46,12.30
2015,12,08,12,47,12.30
2015,12,08,12,48,12.30
2015,12,08,12,49,12.30
2015,12,08,12,50,12.30
2015,12,08,12,51,12.30
2015,12,08,12,52,12.30
2015,12,08,12,53,12.30
2015,12,08,12,54,12.30
2015,12,08,12,55,12.30
2015,12,08,12,56,12.30
2015,12,08,12,57,12.30
2015,12,08,12,58,12.30
2015,12,08,12,59,12.30
2015,12,08,13,00,12.30
2015,12,08,13,02,12.30
2015,12,08,13,03,12.30
2015,12,08,13,04,12.30
2015,12,08,13,06,12.30
2015,12,08,13,07,12.30
2015,12,08,13,08,12.30
2015,12,08,13,09,12.30
2015,12,08,13,11,12.30
2015,12,08,13,12,12.30
2015,12,08,13,13,12.30
2015,12,08,13,14,12.30
2015,12,08,13,16,12.30
2015,12,08,13,17,12.30
2015,12,08,13,18,12.30
2015,12,08,13,19,12.30
2015,12,08,13,21,12.30
2015,12,08,13,22,12.30
2015,12,08,13,23,12.30
2015,12,08,13,24,12.30
2015,12,08,13,26,12.30
2015,12,08,13,27,12.30
2015,12,08,13,28,12.30
2015,12,08,13,29,12.30
2015,12,08,13,31,12.30
2015,12,08,13,32,12.30
2015,12,08,13,33,12.30
2015,12,08,13,34,12.30
2015,12,08,13,36,12.30
2015,12,08,13,37,12.30
2015,12,08,13,38,12.30
2015,12,08,13,39,12.30
2015,12,08,13,41,12.30
2015,12,08,13,42,12.30
2015,12,08,13,43,12.30
2015,12,08,13,44,12.30
2015,12,08,13,46,12.30
2015,12,08,13,47,12.30
2015,12,08,13,48,12.30
2015,12,08,13,49,12.30
2015,12,08,13,51,12.30
2015,12,08,13,52,12.30
2015,12,08,13,53,12.30
2015,12,08,13,54,12.30
2015,12,08,13,56,12.30
2015,12,08,13,57,12.30
2015,12,08,13,58,12.30
2015,12,08,13,59,12.30
2015,12,08,14,01,12.30
2015,12,08,14,02,12.30
2015,12,08,14,03,12.30
2015,12,08,14,04,12.30
2015,12,08,14,06,12.30
2015,12,08,14,07,12.30
2015,12,08,14,08,12.30
2015,12,08,14,09,12.30
2015,12,08,14,11,12.30
2015,12,08,14,12,12.30
2015,12,08,14,13,12.30
2015,12,08,14,14,12.30
2015,12,08,14,16,12.30
2015,12,08,14,17,12.30
2015,12,08,14,18,12.30
2015,12,08,14,19,12.30
2015,12,08,14,21,12.30
2015,12,08,14,22,12.30
2015,12,08,14,23,12.30
2015,12,08,14,24,12.30
2015,12,08,14,26,12.20
2015,12,08,14,27,12.20
2015,12,08,14,28,12.20
2015,12,08,14,29,12.20
2015,12,08,14,31,12.20
2015,12,08,14,32,12.20
2015,12,08,14,33,12.20
2015,12,08,14,34,12.20
2015,12,08,14,36,12.30
2015,12,08,14,37,12.30
2015,12,08,14,38,12.30
2015,12,08,14,39,12.30
2015,12,08,14,40,12.30
2015,12,08,14,41,12.30
2015,12,08,14,42,12.30
2015,12,08,14,43,12.30
2015,12,08,14,44,12.30
2015,12,08,14,45,12.30
2015,12,08,14,46,12.30
2015,12,08,14,47,12.30
2015,12,08,14,48,12.20
2015,12,08,14,49,12.20
2015,12,08,14,50,12.20
2015,12,08,14,51,12.20
2015,12,08,14,52,12.20
2015,12,08,14,53,12.20
2015,12,08,14,54,12.20
2015,12,08,14,55,12.20
2015,12,08,14,57,12.20
2015,12,08,14,58,12.20
2015,12,08,14,59,12.20
2015,12,08,15,01,12.20
2015,12,08,15,02,12.20
2015,12,08,15,03,12.20
2015,12,08,15,04,12.20
2015,12,08,15,06,12.10
2015,12,08,15,07,12.10
2015,12,08,15,08,12.10
2015,12,08,15,09,12.10
2015,12,08,15,11,12.10
2015,12,08,15,12,12.10
2015,12,08,15,13,12.10
2015,12,08,15,14,12.10
2015,12,08,15,16,12.10
2015,12,08,15,17,12.10
2015,12,08,15,18,12.10
2015,12,08,15,19,12.10
2015,12,08,15,21,12.10
2015,12,08,15,22,12.10
2015,12,08,15,23,12.10
2015,12,08,15,24,12.10
2015,12,08,15,26,12.10
2015,12,08,15,27,12.10
2015,12,08,15,28,12.10
2015,12,08,15,29,12.10
2015,12,08,15,31,12.10
2015,12,08,15,32,12.10
2015,12,08,15,33,12.10
2015,12,08,15,34,12.10
2015,12,08,15,36,12.10
2015,12,08,15,37,12.10
2015,12,08,15,38,12.10
2015,12,08,15,39,12.10
2015,12,08,15,41,12.10
2015,12,08,15,42,12.10
2015,12,08,15,43,12.10
2015,12,08,15,44,12.10
2015,12,08,15,46,12.10
2015,12,08,15,47,12.10
2015,12,08,15,48,12.10
2015,12,08,15,49,12.10
2015,12,08,15,51,12.10
2015,12,08,15,52,12.10
2015,12,08,15,53,12.10
2015,12,08,15,54,12.10
2015,12,08,15,56,12.00
2015,12,08,15,57,12.00
2015,12,08,15,58,12.00
2015,12,08,15,59,12.00
2015,12,08,16,01,12.00
2015,12,08,16,02,12.00
2015,12,08,16,03,12.00
2015,12,08,16,04,12.00
2015,12,08,16,06,12.00
2015,12,08,16,07,12.00
2015,12,08,16,08,12.00
2015,12,08,16,09,12.00
2015,12,08,16,11,12.00
2015,12,08,16,12,12.00
2015,12,08,16,13,12.00
2015,12,08,16,14,12.00
2015,12,08,16,16,12.00
2015,12,08,16,17,12.00
2015,12,08,16,18,12.00
2015,12,08,16,19,12.00
2015,12,08,16,21,12.00
2015,12,08,16,22,12.00
2015,12,08,16,23,11.90
2015,12,08,16,24,11.90
2015,12,08,16,26,11.90
2015,12,08,16,27,11.90
2015,12,08,16,28,11.90
2015,12,08,16,29,11.90
2015,12,08,16,31,11.90
2015,12,08,16,32,11.90
2015,12,08,16,33,11.80
2015,12,08,16,34,11.80
2015,12,08,16,36,11.80
2015,12,08,16,37,11.80
2015,12,08,16,38,11.80
2015,12,08,16,39,11.80
2015,12,08,16,41,11.80
2015,12,08,16,42,11.80
2015,12,08,16,43,11.80
2015,12,08,16,44,11.80
2015,12,08,16,46,11.80
2015,12,08,16,47,11.70
2015,12,08,16,48,11.70
2015,12,08,16,49,11.70
2015,12,08,16,51,11.70
2015,12,08,16,52,11.70
2015,12,08,16,53,11.60
2015,12,08,16,54,11.60
2015,12,08,16,55,11.60
2015,12,08,16,56,11.60
2015,12,08,16,57,11.60
2015,12,08,16,58,11.60
2015,12,08,16,59,11.60
2015,12,08,17,00,11.60
2015,12,08,17,01,11.60
2015,12,08,17,02,11.60
2015,12,08,17,03,11.60
2015,12,08,17,04,11.60
2015,12,08,17,05,11.60
2015,12,08,17,06,11.60
2015,12,08,17,07,11.60
2015,12,08,17,08,11.60
2015,12,08,17,09,11.60
2015,12,08,17,10,11.60
2015,12,08,17,11,11.60
2015,12,08,17,13,11.60
2015,12,08,17,14,11.60
2015,12,08,17,16,11.60
2015,12,08,17,17,11.60
2015,12,08,17,18,11.60
2015,12,08,17,19,11.60
2015,12,08,17,21,11.40
2015,12,08,17,22,11.40
2015,12,08,17,23,11.40
2015,12,08,17,24,11.40
2015,12,08,17,26,11.40
2015,12,08,17,27,11.40
2015,12,08,17,28,11.40
2015,12,08,17,29,11.40
2015,12,08,17,31,11.40
2015,12,08,17,32,11.40
2015,12,08,17,33,11.40
2015,12,08,17,34,11.40
2015,12,08,17,36,11.40
2015,12,08,17,37,11.40
2015,12,08,17,38,11.40
2015,12,08,17,39,11.40
2015,12,08,17,41,11.30
2015,12,08,17,42,11.30
2015,12,08,17,43,11.30
2015,12,08,17,44,11.30
2015,12,08,17,46,11.30
2015,12,08,17,47,11.20
2015,12,08,17,48,11.20
2015,12,08,17,49,11.20
2015,12,08,17,51,11.20
2015,12,08,17,52,11.20
2015,12,08,17,53,11.20
2015,12,08,17,54,11.10
2015,12,08,17,56,11.10
2015,12,08,17,57,11.10
2015,12,08,17,58,11.10
2015,12,08,17,59,11.10
2015,12,08,18,01,11.10
2015,12,08,18,02,10.90
2015,12,08,18,03,10.90
2015,12,08,18,04,10.90
2015,12,08,18,06,10.90
2015,12,08,18,07,10.90
2015,12,08,18,08,10.90
2015,12,08,18,09,10.80
2015,12,08,18,11,10.80
2015,12,08,18,12,10.80
2015,12,08,18,13,10.80
2015,12,08,18,14,10.80
2015,12,08,18,16,10.80
2015,12,08,18,17,10.80
2015,12,08,18,18,10.80
2015,12,08,18,19,10.80
2015,12,08,18,21,10.80
2015,12,08,18,22,10.80
2015,12,08,18,23,10.80
2015,12,08,18,24,10.80
2015,12,08,18,26,10.70
2015,12,08,18,27,10.70
2015,12,08,18,28,10.70
2015,12,08,18,29,10.70
2015,12,08,18,31,10.70
2015,12,08,18,32,10.70
2015,12,08,18,33,10.80
2015,12,08,18,34,10.70
2015,12,08,18,36,10.70
2015,12,08,18,37,10.70
2015,12,08,18,38,10.70
2015,12,08,18,39,10.70
2015,12,08,18,41,10.60
2015,12,08,18,42,10.60
2015,12,08,18,43,10.60
2015,12,08,18,44,10.60
2015,12,08,18,46,10.60
2015,12,08,18,47,10.60
2015,12,08,18,48,10.60
2015,12,08,18,49,10.60
2015,12,08,18,51,10.60
2015,12,08,18,52,10.60
2015,12,08,18,53,10.60
2015,12,08,18,54,10.60
2015,12,08,18,56,10.60
2015,12,08,18,57,10.60
2015,12,08,18,58,10.60
2015,12,08,18,59,10.60
2015,12,08,19,01,10.60
2015,12,08,19,02,10.60
2015,12,08,19,03,10.60
2015,12,08,19,04,10.40
2015,12,08,19,06,10.40
2015,12,08,19,07,10.60
2015,12,08,19,08,10.60
2015,12,08,19,09,10.60
2015,12,08,19,11,10.60
2015,12,08,19,12,10.40
2015,12,08,19,13,10.40
2015,12,08,19,14,10.40
2015,12,08,19,16,10.40
2015,12,08,19,17,10.40
2015,12,08,19,18,10.40
2015,12,08,19,19,10.40
2015,12,08,19,20,10.40
2015,12,08,19,21,10.40
2015,12,08,19,22,10.40
2015,12,08,19,23,10.40
2015,12,08,19,24,10.40
2015,12,08,19,25,10.40
2015,12,08,19,26,10.40
2015,12,08,19,27,10.40
2015,12,08,19,28,10.40
2015,12,08,19,29,10.40
2015,12,08,19,30,10.40
2015,12,08,19,31,10.40
2015,12,08,19,32,10.40
2015,12,08,19,33,10.40
2015,12,08,19,34,10.40
2015,12,08,19,35,10.40
2015,12,08,19,36,10.40
2015,12,08,19,37,10.40
2015,12,08,19,38,10.40
2015,12,08,19,39,10.40
2015,12,08,19,40,10.40
2015,12,08,19,41,10.40
2015,12,08,19,42,10.40
2015,12,08,19,43,10.40
2015,12,08,19,44,10.40
2015,12,08,19,45,10.40
2015,12,08,19,46,10.30
2015,12,08,19,47,10.30
2015,12,08,19,49,10.30
2015,12,08,19,51,10.30
2015,12,08,19,52,10.30
2015,12,08,19,53,10.20
2015,12,08,19,54,10.20
2015,12,08,19,56,10.10
2015,12,08,19,57,10.10
2015,12,08,19,58,10.10
2015,12,08,19,59,10.10
2015,12,08,20,01,9.90
2015,12,08,20,02,9.90
2015,12,08,20,03,9.90
2015,12,08,20,04,9.90
2015,12,08,20,06,9.80
2015,12,08,20,07,9.70
2015,12,08,20,08,9.70
2015,12,08,20,09,9.70
2015,12,08,20,11,9.70
2015,12,08,20,12,9.70
2015,12,08,20,13,9.70
2015,12,08,20,14,9.60
2015,12,08,20,16,9.50
2015,12,08,20,17,9.50
2015,12,08,20,18,9.50
2015,12,08,20,19,9.50
2015,12,08,20,21,9.40
2015,12,08,20,22,9.40
2015,12,08,20,23,9.40
2015,12,08,20,24,9.40
2015,12,08,20,26,9.40
2015,12,08,20,27,9.40
2015,12,08,20,28,9.40
2015,12,08,20,29,9.30
2015,12,08,20,31,9.30
2015,12,08,20,32,9.30
2015,12,08,20,33,9.30
2015,12,08,20,34,9.30
2015,12,08,20,36,9.30
2015,12,08,20,37,9.30
2015,12,08,20,38,9.30
2015,12,08,20,39,9.30
2015,12,08,20,41,9.20
2015,12,08,20,42,9.20
2015,12,08,20,43,9.20
2015,12,08,20,44,9.20
2015,12,08,20,46,9.10
2015,12,08,20,47,9.10
2015,12,08,20,48,9.10
2015,12,08,20,49,9.00
2015,12,08,20,51,9.00
2015,12,08,20,52,9.00
2015,12,08,20,53,8.90
2015,12,08,20,54,8.90
2015,12,08,20,56,8.90
2015,12,08,20,57,8.80
2015,12,08,20,58,8.80
2015,12,08,20,59,8.80
2015,12,08,21,01,8.80
2015,12,08,21,02,8.80
2015,12,08,21,03,8.80
2015,12,08,21,04,8.80
2015,12,08,21,06,8.70
2015,12,08,21,07,8.70
2015,12,08,21,08,8.70
2015,12,08,21,09,8.70
2015,12,08,21,11,8.70
2015,12,08,21,12,8.70
2015,12,08,21,13,8.70
2015,12,08,21,14,8.70
2015,12,08,21,16,8.70
2015,12,08,21,17,8.70
2015,12,08,21,18,8.70
2015,12,08,21,19,8.70
2015,12,08,21,21,8.70
2015,12,08,21,22,8.70
2015,12,08,21,23,8.70
2015,12,08,21,24,8.70
2015,12,08,21,26,8.60
2015,12,08,21,27,8.60
2015,12,08,21,28,8.60
2015,12,08,21,29,8.60
2015,12,08,21,31,8.60
2015,12,08,21,32,8.60
2015,12,08,21,33,8.60
2015,12,08,21,34,8.60
2015,12,08,21,36,8.60
2015,12,08,21,37,8.60
2015,12,08,21,38,8.60
2015,12,08,21,39,8.60
2015,12,08,21,41,8.60
2015,12,08,21,42,8.60
2015,12,08,21,43,8.60
2015,12,08,21,44,8.60
2015,12,08,21,46,8.60
2015,12,08,21,47,8.60
2015,12,08,21,48,8.60
2015,12,08,21,49,8.60
2015,12,08,21,51,8.60
2015,12,08,21,52,8.60
2015,12,08,21,53,8.60
2015,12,08,21,54,8.60
2015,12,08,21,56,8.60
2015,12,08,21,57,8.60
2015,12,08,21,58,8.60
2015,12,08,21,59,8.50
2015,12,08,22,01,8.50
2015,12,08,22,02,8.50
2015,12,08,22,03,8.50
2015,12,08,22,04,8.50
2015,12,08,22,06,8.50
2015,12,08,22,07,8.50
2015,12,08,22,08,8.50
2015,12,08,22,09,8.50
2015,12,08,22,11,8.50
2015,12,08,22,12,8.50
2015,12,08,22,13,8.50
2015,12,08,22,14,8.50
2015,12,08,22,15,8.50
2015,12,08,22,16,8.50
2015,12,08,22,17,8.50
2015,12,08,22,18,8.50
2015,12,08,22,19,8.50
2015,12,08,22,20,8.50
2015,12,08,22,21,8.50
2015,12,08,22,22,8.50
2015,12,08,22,23,8.50
2015,12,08,22,24,8.50
2015,12,08,22,25,8.50
2015,12,08,22,26,8.40
2015,12,08,22,27,8.40
2015,12,08,22,28,8.40
2015,12,08,22,29,8.40
2015,12,08,22,30,8.40
2015,12,08,22,31,8.40
2015,12,08,22,32,8.40
2015,12,08,22,33,8.40
2015,12,08,22,34,8.40
2015,12,08,22,36,8.40
2015,12,08,22,37,8.40
2015,12,08,22,38,8.40
2015,12,08,22,39,8.30
2015,12,08,22,41,8.30
2015,12,08,22,42,8.30
2015,12,08,22,43,8.30
2015,12,08,22,44,8.30
2015,12,08,22,46,8.30
2015,12,08,22,47,8.30
2015,12,08,22,48,8.30
2015,12,08,22,49,8.30
2015,12,08,22,51,8.30
2015,12,08,22,52,8.30
2015,12,08,22,53,8.30
2015,12,08,22,54,8.30
2015,12,08,22,56,8.30
2015,12,08,22,57,8.30
2015,12,08,22,58,8.30
2015,12,08,22,59,8.30
2015,12,08,23,01,8.30
2015,12,08,23,02,8.30
2015,12,08,23,03,8.30
2015,12,08,23,04,8.30
2015,12,08,23,06,8.30
2015,12,08,23,07,8.30